Retour au catalogue

FENGYUN 1C DEB

ActifSSO
NORAD 30282·DEBRIS·🇨🇳 China

Lancé May 10, 1999 depuis Taiyuan Satellite Launch Center

Loading…

Prochains Passages (prochaines 24 heures)

TLE

FraisSource: Space-Track

Époque: Sep 14, 2026, 11:07 UTC

1 30282U 99025YT  26257.46343480  .00000306  00000-0  15205-3 0  9999
2 30282  98.5118 252.3311 0208436 291.1875 224.2238 14.13277568 12440

Suivez FENGYUN 1C DEB en temps réel avec AllMySat

Download on the App Store